Moriarty, NM

3:54 PM MST on February 27, 2017 (GMT -0700)
Moriarty

Weather History for K0E0 - May, 2013

Change the Weather History Date:

Friday, May 17, 2013

  Actual Average (KABQ) Record (KABQ)
Temperature  
Mean Temperature 64 °F -  
Max Temperature 85 °F 79 °F 92 °F (1937)
Min Temperature 43 °F 50 °F 35 °F (1983)
Degree Days  
Heating Degree Days 1    
Growing Degree Days 14 (Base 50)    
Moisture  
Dew Point 16 °F    
Average Humidity 14    
Maximum Humidity 26    
Minimum Humidity 7    
Precipitation  
Precipitation 0.00 in - - ()
Sea Level Pressure  
Sea Level Pressure 30.06 in    
Wind  
Wind Speed 8 mph (WSW)    
Max Wind Speed 24 mph    
Max Gust Speed 32 mph    
Visibility 10 miles    
Events      
Averages and records for this station are not official NWS values.
T = Trace of Precipitation, MM = Missing Value Source: NWS Daily Summary

Daily Weather History Graph

Daily Weather History Graph

Search for Another Location

Airport or City:

Trip Planner

Search our weather history database for the weather conditions in past years. The results will help you decide how hot, cold, wet, or windy it might be!

Date:

Astronomy

May. 17, 2013 Rise Set
Actual Time 5:58 AM MDT 8:02 PM MDT
Civil Twilight 5:30 AM MDT 8:30 PM MDT
Nautical Twilight 4:56 AM MDT 9:05 PM MDT
Astronomical Twilight 4:19 AM MDT 9:42 PM MDT
Moon 12:27 PM MDT (5/17) 1:02 AM MDT (5/17)
Length of Visible Light 15h 00m
Length of Day
14h 03m
Waxing Crescent, 46% of the Moon is Illuminated
May 17
Waxing Crescent
May 17
First Quarter
May 24
Full
May 31
Last Quarter
Jun 8
New

Hourly Weather History & Observations

Time (MDT) Temp. Windchill Dew Point Humidity Pressure Visibility Wind Dir Wind Speed Gust Speed Precip Events Conditions
12:15 AM 56.5 °F - 7.0 °F 14% 30.04 in 10.0 mi ESE 3.5 mph - N/A   Clear
12:35 AM 58.3 °F - 8.4 °F 14% 30.04 in 10.0 mi Calm Calm - N/A   Clear
12:55 AM 66.4 °F - 13.1 °F 13% 30.04 in 10.0 mi North 3.5 mph - N/A   Clear
1:15 AM 65.7 °F - 12.9 °F 13% 30.04 in 10.0 mi Calm Calm - N/A   Clear
1:35 AM 61.0 °F - 12.0 °F 15% 30.05 in 10.0 mi WNW 4.6 mph - N/A   Clear
1:55 AM 60.4 °F - 12.6 °F 15% 30.05 in 10.0 mi WNW 11.5 mph - N/A   Clear
2:15 AM 59.4 °F - 12.0 °F 16% 30.04 in 10.0 mi WNW 10.4 mph - N/A   Clear
2:35 AM 53.4 °F - 11.5 °F 19% 30.04 in 10.0 mi WNW 11.5 mph - N/A   Clear
2:55 AM 58.5 °F - 11.3 °F 16% 30.05 in 10.0 mi North 3.5 mph - N/A   Clear
3:15 AM 51.3 °F - 11.5 °F 20% 30.06 in 10.0 mi Calm Calm - N/A   Clear
3:35 AM 54.3 °F - 11.8 °F 18% 30.07 in 10.0 mi East 6.9 mph - N/A   Clear
3:55 AM 52.9 °F - 12.2 °F 20% 30.08 in 10.0 mi NE 6.9 mph - N/A   Clear
4:15 AM 47.8 °F - 10.4 °F 22% 30.08 in 10.0 mi East 8.1 mph - N/A   Clear
4:35 AM 48.7 °F - 10.9 °F 22% 30.08 in 10.0 mi NE 5.8 mph - N/A   Clear
4:55 AM 47.8 °F - 10.6 °F 22% 30.08 in 10.0 mi NNE 4.6 mph - N/A   Clear
5:15 AM 43.5 °F 40.1 °F 9.3 °F 25% 30.08 in 10.0 mi ENE 5.8 mph - N/A   Clear
5:35 AM 44.2 °F 39.2 °F 10.9 °F 26% 30.08 in 10.0 mi NE 9.2 mph - N/A   Clear
5:55 AM 44.8 °F 42.4 °F 11.1 °F 26% 30.10 in 10.0 mi NE 4.6 mph - N/A   Clear
6:15 AM 46.2 °F 43.3 °F 10.8 °F 24% 30.10 in 10.0 mi North 5.8 mph - N/A   Clear
6:35 AM 51.8 °F - 14.0 °F 22% 30.11 in 10.0 mi North 5.8 mph - N/A   Clear
6:55 AM 53.4 °F - 14.2 °F 21% 30.13 in 10.0 mi Calm Calm - N/A   Clear
7:15 AM 55.9 °F - 15.6 °F 21% 30.13 in 10.0 mi Calm Calm - N/A   Clear
7:35 AM 61.3 °F - 17.6 °F 18% 30.14 in 10.0 mi WSW 6.9 mph - N/A   Clear
7:55 AM 64.6 °F - 16.5 °F 16% 30.13 in 10.0 mi South 4.6 mph - N/A   Clear
8:15 AM 61.2 °F - 16.3 °F 18% 30.13 in 10.0 mi South 5.8 mph - N/A   Clear
8:35 AM 63.9 °F - 16.0 °F 16% 30.13 in 10.0 mi South 6.9 mph - N/A   Clear
8:55 AM 66.2 °F - 16.5 °F 15% 30.13 in 10.0 mi SSE 4.6 mph - N/A   Clear
9:15 AM 69.1 °F - 17.6 °F 14% 30.13 in 10.0 mi Calm Calm - N/A   Clear
9:35 AM 72.5 °F - 18.5 °F 13% 30.12 in 10.0 mi WNW 3.5 mph - N/A   Clear
9:55 AM 73.6 °F - 18.5 °F 12% 30.12 in 10.0 mi SSW 3.5 mph - N/A   Clear
10:15 AM 75.0 °F - 18.3 °F 12% 30.12 in 10.0 mi Calm Calm - N/A   Clear
10:35 AM 75.7 °F - 15.8 °F 10% 30.11 in 10.0 mi WNW 15.0 mph 18.4 mph N/A   Clear
10:55 AM 78.4 °F - 15.6 °F 9% 30.11 in 10.0 mi West 18.4 mph 24.2 mph N/A   Clear
11:15 AM 77.4 °F - 15.4 °F 10% 30.12 in 10.0 mi West 11.5 mph - N/A   Clear
11:35 AM 78.8 °F - 15.3 °F 9% 30.11 in 10.0 mi SW 12.7 mph 25.3 mph N/A   Clear
11:55 AM 79.7 °F - 13.6 °F 8% 30.10 in 10.0 mi WSW 13.8 mph 20.7 mph N/A   Clear
12:15 PM 80.4 °F - 12.7 °F 8% 30.10 in 10.0 mi SSW 17.3 mph 20.7 mph N/A   Clear
12:35 PM 81.5 °F - 12.4 °F 7% 30.08 in 10.0 mi West 11.5 mph - N/A   Clear
12:55 PM 81.9 °F - 14.5 °F 8% 30.08 in 10.0 mi WSW 17.3 mph 28.8 mph N/A   Clear
1:15 PM 82.8 °F - 15.8 °F 8% 30.08 in 10.0 mi SSW 10.4 mph 21.9 mph N/A   Clear
1:35 PM 82.8 °F - 17.1 °F 9% 30.07 in 10.0 mi West 13.8 mph 27.6 mph N/A   Clear
1:55 PM 83.1 °F - 18.3 °F 9% 30.07 in 10.0 mi WSW 16.1 mph 26.5 mph N/A   Clear
2:15 PM 83.5 °F - 18.0 °F 9% 30.06 in 10.0 mi West 18.4 mph 31.1 mph N/A   Clear
2:35 PM 83.5 °F - 18.5 °F 9% 30.05 in 10.0 mi West 17.3 mph 25.3 mph N/A   Clear
2:55 PM 85.5 °F - 21.0 °F 9% 30.05 in 10.0 mi SW 18.4 mph 27.6 mph N/A   Clear
3:15 PM 84.6 °F - 19.9 °F 9% 30.04 in 10.0 mi SW 19.6 mph 29.9 mph N/A   Clear
3:35 PM 85.1 °F - 18.7 °F 9% 30.03 in 10.0 mi WSW 24.2 mph 32.2 mph N/A   Clear
3:55 PM 84.7 °F - 17.8 °F 8% 30.02 in 10.0 mi West 20.7 mph 27.6 mph N/A   Clear
4:15 PM 85.1 °F - 17.8 °F 8% 30.02 in 10.0 mi WSW 17.3 mph 26.5 mph N/A   Clear
4:35 PM 84.7 °F - 17.4 °F 8% 30.01 in 10.0 mi WSW 15.0 mph 29.9 mph N/A   Clear
4:55 PM 85.3 °F - 16.2 °F 8% 30.01 in 10.0 mi SW 17.3 mph 27.6 mph N/A   Clear
5:15 PM 82.6 °F - 17.1 °F 9% 30.00 in 10.0 mi SSW 19.6 mph 24.2 mph N/A   Clear
5:35 PM 84.2 °F - 17.2 °F 8% 29.99 in 10.0 mi SW 17.3 mph 23.0 mph N/A   Clear
5:55 PM 83.5 °F - 17.1 °F 8% 29.99 in 10.0 mi WSW 11.5 mph 18.4 mph N/A   Clear
6:15 PM 80.6 °F - 15.8 °F 9% 29.99 in 10.0 mi SSW 9.2 mph 19.6 mph N/A   Clear
6:35 PM 79.3 °F - 16.7 °F 10% 29.98 in 10.0 mi South 12.7 mph - N/A   Clear
6:55 PM 78.1 °F - 16.7 °F 10% 29.99 in 10.0 mi SSW 10.4 mph - N/A   Clear
7:15 PM 77.2 °F - 17.4 °F 11% 29.98 in 10.0 mi South 6.9 mph - N/A   Scattered Clouds
7:35 PM 76.6 °F - 17.2 °F 11% 29.98 in 10.0 mi South 13.8 mph - N/A   Clear
7:55 PM 73.6 °F - 16.2 °F 11% 30.00 in 10.0 mi SW 11.5 mph - N/A   Clear
8:15 PM 71.4 °F - 16.3 °F 12% 30.01 in 10.0 mi WSW 6.9 mph - N/A   Clear
8:35 PM 71.2 °F - 16.9 °F 13% 30.01 in 10.0 mi SW 15.0 mph 18.4 mph N/A   Clear
8:55 PM 72.5 °F - 18.9 °F 13% 30.02 in 10.0 mi SW 11.5 mph - N/A   Clear
9:15 PM 69.3 °F - 18.1 °F 14% 30.02 in 10.0 mi SW 9.2 mph - N/A   Clear
9:35 PM 70.7 °F - 21.9 °F 16% 30.02 in 10.0 mi WSW 13.8 mph - N/A   Clear
9:55 PM 70.9 °F - 21.7 °F 16% 30.04 in 10.0 mi WSW 15.0 mph - N/A   Clear
10:15 PM 68.7 °F - 21.0 °F 16% 30.04 in 10.0 mi SW 8.1 mph - N/A   Clear
10:35 PM 69.6 °F - 23.2 °F 17% 30.04 in 10.0 mi West 10.4 mph - N/A   Clear
10:55 PM 67.1 °F - 24.1 °F 20% 30.04 in 10.0 mi West 5.8 mph - N/A   Clear
11:15 PM 64.0 °F - 23.0 °F 21% 30.04 in 10.0 mi Calm Calm - N/A   Clear
11:35 PM 62.1 °F - 22.6 °F 22% 30.04 in 10.0 mi Calm Calm - N/A   Clear
11:55 PM 57.7 °F - 20.8 °F 24% 30.04 in 10.0 mi Calm Calm - N/A   Clear